Location: Voyageurs National Park
(48.5020°N, 92.9292°W)
Time: 04:46:00
(UTC-06:00)

PAYLOAD A - Pass Details

Date: 19 January 2018
Orbit: 691 x 833 km, 98.2° (Epoch: 21 February)

Event Time Altitude Azimuth Distance (km) Brightness Sun altitude
Rises 06:28:43 0° 7° (N) 3,221 7.1 -14.0°
Reaches altitude 10° 06:31:13 10° 358° (N) 2,269 6.3 -13.6°
Maximum altitude 06:35:39 34° 295° (WNW) 1,193 4.5 -12.9°
Drops below altitude 10° 06:39:57 10° 232° (SW) 2,184 6.0 -12.3°
Sets 06:42:19 0° 223° (SW) 3,084 6.9 -11.9°
